NOAA 16 DEB, 41409

Orbit data source: Space-Track

NOAA 16 DEB, 41409 is space debris in SSO originally from a launch on Thu, 21 Sep 2000 UTC launched from the Air Force Western Test Range (AFWTR). Debris objects in space refer to the collection of defunct objects orbiting the Earth. Examples of debris include non-operational satellites, rocket bodies, and fragments generated from explosions, collisions, or faulty payload assembly.

Loading next visibility...
Identifier
41409, 2000-055KN
Orbit
SSO
Country
Flag of USUS
Related business
Manufacturer
Unknown
Mission
Spacecraft
Bus & Motor
Unknown
Mass
Unknown
Launch date (UTC)
2000-09-21 (26 years ago)
Launch vehicle
Unknown
Launch site
Air Force Western Test Range (AFWTR)
Object type
Payload
Rocket body
Debris
Shape & HBR
Unknown shape, 0.1 m
Radar Cross Section
Medium (>0.1 m² and <1 m²)

Expand to show TLE details & history
Last TLE update: 2 days ago

TLE from 2 days ago
0 NOAA 16 DEB
1 41409U 00055KN  26207.20992295  .00006754  00000-0  19685-2 0  9996
2 41409  98.6399 295.2826 0026236  90.9380 269.4817 14.44266675541604
Epoch: 2026-07-26T05:02Z
TLE epoch observation values (Epoch: 2026-07-26T05:02:17.342Z)
Latitude
0.00003°
Longitude
-84.20079°
Altitude
747.604 km
Speed
7.481 km/s
True Right ascension
19h 41m 07s
True Declination
0° 00' 00"
Sunlit
Object was in full shadow at epoch
Visualization orbit readout
Latitude
Unknown
Longitude
Unknown
Altitude
Unknown
Speed
Unknown
Apparent Right ascension
Unknown
Apparent Declination
Unknown
Sunlit
N/A
Visualization observer readout
Local Sidereal Time
01:38:59
Azimuth
Unknown
Elevation
Unknown
Doppler factor
Unknown
Orbital elements
Apogee altitude
760.238 km
Perigee altitude
722.88 km
Semi-major axis
7,119.696 km
Eccentricity
0.00262
Inclination
98.6399°
RAAN
295.2826°
Arg. of periapsis
90.938°
True anomaly
269.18108°
Mean anomaly
269.4817°
Eccentric anomaly
269.33139°
Mean motion
3.61286 °/min
Orbital period
99.64 mins
BSTAR
0.0019685
Loading maneuver chart data...
Computing Atmospheric mass density...
Loading historical data...
Loading historical data...
Loading historical data...
Loading historical data...
Loading historical data...
Loading historical data...
Loading historical data...

Documentation

Showing up to 5 results
|